Weather History for KMEH - October, 2013

Change the Weather History Date:

Thursday, October 3, 2013

  Actual Average Record
Temperature  
Mean Temperature 37 °F -  
Max Temperature 44 °F 62 °F 75 °F (2003)
Min Temperature 28 °F 28 °F 17 °F (1999)
Degree Days  
Heating Degree Days 28    
Moisture  
Dew Point 34 °F    
Average Humidity 89    
Maximum Humidity 96    
Minimum Humidity 76    
Precipitation  
Precipitation 0.12 in - - ()
Sea Level Pressure  
Sea Level Pressure 30.24 in    
Wind  
Wind Speed 1 mph (West)    
Max Wind Speed 5 mph    
Max Gust Speed -    
Visibility 5 miles    
Events Fog , Rain , Snow    
Averages and records for this station are not official NWS values.
T = Trace of Precipitation, MM = Missing Value Source: NWS Daily Summary

Daily Weather History Graph

Daily Weather History Graph

Search for Another Location

Airport or City:

Trip Planner

Search our weather history database for the weather conditions in past years. The results will help you decide how hot, cold, wet, or windy it might be!

Date:

Astronomy

Oct. 03, 2013 Rise Set
Actual Time 6:54 AM PDT 6:29 PM PDT
Civil Twilight 6:25 AM PDT 6:59 PM PDT
Nautical Twilight 5:50 AM PDT 7:33 PM PDT
Astronomical Twilight 5:16 AM PDT 8:07 PM PDT
Moon 5:30 AM PDT (10/3) 5:41 PM PDT (10/3)
Length of Visible Light 12h 33m
Length of Day
11h 34m
Waning Crescent, 2% of the Moon is Illuminated
Oct 3
Waning Crescent
Oct 4
New
Oct 11
First Quarter
Oct 18
Full
Oct 26
Last Quarter

Hourly Weather History & Observations

Time (PDT) Temp. Windchill Dew Point Humidity Pressure Visibility Wind Dir Wind Speed Gust Speed Precip Events Conditions
12:06 AM 35.6 °F - 32.0 °F 87% 30.04 in 10.0 mi Calm Calm - N/A   Overcast
12:56 AM 37.0 °F 34.5 °F 34.0 °F 89% 30.08 in 10.0 mi Variable 3.5 mph - N/A   Overcast
1:56 AM 37.0 °F - 34.0 °F 89% 30.10 in 10.0 mi Calm Calm - 0.00 in   Overcast
2:42 AM 37.4 °F - 33.8 °F 87% 30.07 in 10.0 mi Calm Calm - 0.00 in   Overcast
2:56 AM 37.0 °F 34.5 °F 34.0 °F 89% 30.10 in 9.0 mi Variable 3.5 mph - 0.00 in Rain Light Rain
3:26 AM 37.4 °F 34.9 °F 33.8 °F 87% 30.08 in 2.0 mi WSW 3.5 mph - 0.01 in Rain Rain
3:39 AM 37.4 °F - 33.8 °F 87% 30.08 in 6.0 mi Calm Calm - 0.02 in Rain Light Rain
4:00 AM 37.4 °F - 35.6 °F 93% 30.08 in 1.8 mi Calm Calm - 0.00 in Rain Light Rain
4:10 AM 37.4 °F 34.9 °F 33.8 °F 87% 30.09 in 0.8 mi Variable 3.5 mph - 0.01 in Rain Rain
4:16 AM 35.6 °F 32.8 °F 33.8 °F 93% 30.09 in 2.0 mi WNW 3.5 mph - 0.04 in Rain Rain
4:24 AM 35.6 °F - 33.8 °F 93% 30.10 in 5.0 mi Calm Calm - 0.06 in Rain Light Rain
4:34 AM 35.6 °F - 32.0 °F 87% 30.10 in 2.0 mi Calm Calm - 0.08 in Snow Light Snow
4:56 AM 34.0 °F - 32.0 °F 92% 30.15 in 7.0 mi Calm Calm - 0.09 in Rain Light Rain
5:03 AM 33.8 °F - 32.0 °F 93% 30.10 in 10.0 mi Calm Calm - 0.00 in   Overcast
5:14 AM 35.6 °F - 33.8 °F 93% 30.11 in 1.8 mi Calm Calm - 0.00 in   Overcast
5:23 AM 35.6 °F - 33.8 °F 93% 30.11 in 0.2 mi Calm Calm - 0.00 in Fog Fog
5:56 AM 37.0 °F 34.5 °F 35.1 °F 93% 30.16 in 0.5 mi Variable 3.5 mph - 0.00 in Fog Fog
6:21 AM 37.4 °F - 35.6 °F 93% 30.13 in 0.2 mi Calm Calm - N/A Fog Fog
6:39 AM 37.4 °F - 35.6 °F 93% 30.13 in 0.2 mi Calm Calm - N/A Fog Fog
6:56 AM 37.0 °F 34.5 °F 35.1 °F 93% 30.19 in 0.2 mi Variable 3.5 mph - 0.00 in Fog , Rain Light Rain
7:31 AM 37.4 °F - 35.6 °F 93% 30.16 in 0.5 mi Calm Calm - 0.01 in Fog , Rain Light Rain
7:43 AM 37.4 °F - 35.6 °F 93% 30.16 in 0.2 mi Calm Calm - 0.01 in Fog , Rain Light Rain
7:56 AM 37.0 °F - 35.1 °F 93% 30.23 in 0.5 mi Calm Calm - 0.02 in Fog , Rain Light Rain
8:07 AM 37.4 °F 34.9 °F 35.6 °F 93% 30.18 in 0.2 mi Variable 3.5 mph - 0.00 in Fog , Rain Light Rain
8:45 AM 37.4 °F 34.9 °F 35.6 °F 93% 30.18 in 0.8 mi Variable 3.5 mph - 0.01 in Rain Light Rain
8:56 AM 37.0 °F - 35.1 °F 93% 30.25 in 1.8 mi Calm Calm - 0.01 in Rain Light Rain
9:05 AM 37.4 °F 34.9 °F 35.6 °F 93% 30.19 in 0.2 mi Variable 3.5 mph - 0.00 in Fog Fog
9:16 AM 37.4 °F - 35.6 °F 93% 30.20 in 1.0 mi Calm Calm - 0.00 in   Overcast
9:27 AM 37.4 °F 33.8 °F 35.6 °F 93% 30.21 in 0.5 mi Variable 4.6 mph - 0.00 in Fog Fog
9:46 AM 37.4 °F - 35.6 °F 93% 30.22 in 0.2 mi Calm Calm - 0.00 in Fog Fog
9:56 AM 37.0 °F - 35.1 °F 93% 30.29 in 0.2 mi Calm Calm - 0.00 in Fog Fog
10:10 AM 37.4 °F - 35.6 °F 93% 30.23 in 0.8 mi Calm Calm - N/A   Mist
10:23 AM 37.4 °F - 35.6 °F 93% 30.23 in 1.0 mi Calm Calm - N/A   Mist
10:30 AM 37.4 °F - 35.6 °F 93% 30.24 in 0.2 mi Calm Calm - N/A Fog Fog
10:42 AM 37.4 °F 34.9 °F 35.6 °F 93% 30.24 in 0.8 mi Variable 3.5 mph - N/A   Overcast
10:49 AM 37.4 °F - 35.6 °F 93% 30.24 in 1.5 mi Calm Calm - N/A   Overcast
10:56 AM 37.0 °F - 36.0 °F 96% 30.30 in 0.8 mi Calm Calm - N/A   Mist
11:09 AM 37.4 °F - 35.6 °F 93% 30.24 in 2.5 mi Calm Calm - N/A   Overcast
11:29 AM 37.4 °F 33.8 °F 35.6 °F 93% 30.25 in 9.0 mi Variable 4.6 mph - N/A   Overcast
11:56 AM 37.9 °F 35.5 °F 36.0 °F 93% 30.31 in 10.0 mi Variable 3.5 mph - N/A   Overcast
12:06 PM 39.2 °F 35.9 °F 35.6 °F 87% 30.26 in 10.0 mi Variable 4.6 mph - N/A   Overcast
12:36 PM 39.2 °F 37.0 °F 35.6 °F 87% 30.26 in 10.0 mi Variable 3.5 mph - N/A   Overcast
12:47 PM 39.2 °F - 35.6 °F 87% 30.26 in 10.0 mi Calm Calm - N/A   Overcast
12:56 PM 39.0 °F 36.8 °F 36.0 °F 89% 30.32 in 10.0 mi Variable 3.5 mph - N/A   Overcast
1:15 PM 41.0 °F 39.0 °F 37.4 °F 87% 30.27 in 10.0 mi Variable 3.5 mph - N/A   Overcast
1:31 PM 39.2 °F - 35.6 °F 87% 30.26 in 10.0 mi Calm Calm - N/A   Overcast
1:42 PM 39.2 °F 37.0 °F 35.6 °F 87% 30.27 in 10.0 mi Variable 3.5 mph - N/A   Overcast
1:56 PM 41.0 °F 39.0 °F 37.0 °F 86% 30.31 in 10.0 mi Variable 3.5 mph - N/A   Overcast
2:32 PM 41.0 °F 38.0 °F 37.4 °F 87% 30.28 in 10.0 mi Variable 4.6 mph - N/A   Overcast
2:56 PM 42.1 °F 39.2 °F 37.0 °F 82% 30.33 in 10.0 mi Variable 4.6 mph - N/A   Overcast
3:42 PM 42.8 °F 41.1 °F 37.4 °F 81% 30.29 in 10.0 mi Variable 3.5 mph - N/A   Overcast
3:49 PM 42.8 °F 41.1 °F 37.4 °F 81% 30.29 in 10.0 mi Variable 3.5 mph - N/A   Overcast
3:56 PM 44.1 °F 41.5 °F 37.0 °F 76% 30.34 in 10.0 mi Variable 4.6 mph - N/A   Overcast
4:56 PM 43.0 °F 41.3 °F 37.0 °F 80% 30.35 in 10.0 mi Variable 3.5 mph - N/A   Mostly Cloudy
5:43 PM 42.8 °F - 37.4 °F 81% 30.32 in 10.0 mi Calm Calm - N/A   Mostly Cloudy
5:56 PM 42.1 °F - 36.0 °F 79% 30.37 in 10.0 mi Calm Calm - N/A   Mostly Cloudy
6:56 PM 39.0 °F - 35.1 °F 86% 30.39 in 10.0 mi Calm Calm - N/A   Mostly Cloudy
7:12 PM 37.4 °F - 33.8 °F 87% 30.34 in 10.0 mi Calm Calm - N/A   Partly Cloudy
7:56 PM 34.0 °F - 32.0 °F 92% 30.41 in 7.0 mi Calm Calm - N/A   Scattered Clouds
8:08 PM 33.8 °F - 30.2 °F 87% 30.35 in 6.0 mi Calm Calm - N/A   Mostly Cloudy
9:26 PM 30.2 °F - 28.4 °F 93% 30.36 in 0.8 mi Calm Calm - N/A   Mist
9:56 PM 30.0 °F - 28.0 °F 92% 30.43 in 0.5 mi Calm Calm - N/A Fog Light Freezing Fog
10:30 PM 30.2 °F - 26.6 °F 86% 30.37 in 1.2 mi Calm Calm - N/A   Overcast
10:36 PM 30.2 °F - 26.6 °F 86% 30.37 in 3.0 mi Calm Calm - N/A   Mostly Cloudy
10:48 PM 30.2 °F - 26.6 °F 86% 30.37 in 1.8 mi Calm Calm - N/A   Mostly Cloudy
10:56 PM 30.0 °F - 27.0 °F 88% 30.44 in 3.0 mi Calm Calm - N/A   Mostly Cloudy
11:06 PM 30.2 °F - 26.6 °F 86% 30.37 in 9.0 mi Calm Calm - N/A   Scattered Clouds
11:56 PM 28.9 °F - 26.1 °F 89% 30.45 in 10.0 mi Calm Calm - N/A   Partly Cloudy